N93SJ EGJJ-LFPB

Flight info

Callsign N93SJ
Flight time 0h 50m
Altitude 19000
Route ORVAL DCT EKRAS DCT GALBO R491 LGL/N0266F180 Z295 PEXIR
Aircraft SF50/L-BDGRSWY/LB2U2

Departure

Time 2026-05-05 13:50
Airport Jersey Airport (EGJJ)

Arrival

Time 2026-05-05 14:41
Airport Paris-Le Bourget International Airport (LFPB)
Time Latitude Longitude Altitude Speed Heading
2026-05-05 13:31 49.20412 -2.19128 278 ft 0 kts 168°
2026-05-05 13:43 49.20408 -2.19147 278 ft 7 kts 290°
2026-05-05 13:44 49.20412 -2.19256 278 ft 14 kts 261°
2026-05-05 13:44 49.20401 -2.19421 278 ft 17 kts 282°
2026-05-05 13:44 49.20432 -2.19598 278 ft 17 kts 285°
2026-05-05 13:44 49.20430 -2.19761 278 ft 14 kts 269°
2026-05-05 13:45 49.20432 -2.19891 278 ft 10 kts 295°
2026-05-05 13:45 49.20482 -2.19924 278 ft 7 kts 355°
2026-05-05 13:45 49.20514 -2.19968 278 ft 7 kts 287°
2026-05-05 13:45 49.20531 -2.20051 278 ft 10 kts 287°
2026-05-05 13:46 49.20557 -2.20185 278 ft 16 kts 286°
2026-05-05 13:46 49.20590 -2.20362 278 ft 19 kts 287°
2026-05-05 13:46 49.20620 -2.20521 278 ft 0 kts 282°
2026-05-05 13:48 49.20623 -2.20540 278 ft 6 kts 282°
2026-05-05 13:48 49.20631 -2.20669 278 ft 16 kts 292°
2026-05-05 13:49 49.20704 -2.20669 277 ft 0 kts 81°
2026-05-05 13:49 49.20731 -2.20350 277 ft 63 kts 83°
2026-05-05 13:49 49.20814 -2.19433 408 ft 101 kts 75°
2026-05-05 13:50 49.20919 -2.18279 800 ft 121 kts 75°
2026-05-05 13:50 49.21058 -2.16940 1483 ft 129 kts 75°
2026-05-05 13:50 49.21183 -2.15499 2135 ft 143 kts 78°
2026-05-05 13:50 49.21292 -2.13945 2808 ft 152 kts 77°
2026-05-05 13:51 49.21435 -2.12306 3542 ft 159 kts 75°
2026-05-05 13:51 49.21588 -2.10615 4366 ft 162 kts 76°
2026-05-05 13:51 49.21744 -2.08848 4945 ft 183 kts 76°
2026-05-05 13:51 49.21801 -2.06723 5344 ft 204 kts 94°
2026-05-05 13:52 49.21423 -2.04753 6601 ft 183 kts 109°
2026-05-05 13:52 49.20736 -2.03136 7488 ft 184 kts 126°
2026-05-05 13:52 49.19757 -2.01861 8216 ft 189 kts 139°
2026-05-05 13:52 49.18719 -2.00628 8970 ft 189 kts 136°
2026-05-05 13:53 49.17685 -1.99373 9736 ft 190 kts 137°
2026-05-05 13:53 49.16642 -1.98143 10314 ft 191 kts 138°
2026-05-05 13:53 49.15580 -1.96886 10808 ft 193 kts 137°
2026-05-05 13:53 49.14514 -1.95631 11331 ft 193 kts 138°
2026-05-05 13:54 49.13456 -1.94382 11811 ft 195 kts 138°
2026-05-05 13:54 49.12377 -1.93110 12296 ft 196 kts 138°
2026-05-05 13:54 49.11296 -1.91832 12779 ft 197 kts 137°
2026-05-05 13:54 49.10207 -1.90547 13262 ft 198 kts 137°
2026-05-05 13:55 49.09125 -1.89274 13721 ft 199 kts 137°
2026-05-05 13:55 49.08020 -1.87972 14131 ft 201 kts 138°
2026-05-05 13:55 49.06912 -1.86666 14551 ft 201 kts 138°
2026-05-05 13:55 49.05800 -1.85356 15036 ft 201 kts 137°
2026-05-05 13:56 49.04692 -1.84058 15575 ft 201 kts 137°
2026-05-05 13:56 49.03609 -1.82745 16085 ft 200 kts 131°
2026-05-05 13:56 49.02786 -1.81064 16604 ft 198 kts 117°
2026-05-05 13:56 49.02063 -1.79261 17155 ft 201 kts 118°
2026-05-05 13:57 49.01312 -1.77451 17769 ft 202 kts 119°
2026-05-05 13:57 49.00568 -1.75601 18318 ft 206 kts 119°
2026-05-05 13:57 48.99799 -1.73775 18828 ft 207 kts 121°
2026-05-05 13:57 48.98990 -1.71849 18925 ft 226 kts 120°
2026-05-05 13:58 48.98139 -1.69727 18939 ft 242 kts 119°
2026-05-05 13:58 48.97224 -1.67506 18938 ft 252 kts 120°
2026-05-05 13:58 48.96285 -1.65247 18937 ft 259 kts 120°
2026-05-05 13:58 48.95313 -1.62898 18938 ft 264 kts 120°
2026-05-05 13:59 48.93314 -1.58059 18936 ft 274 kts 120°
2026-05-05 13:59 48.92299 -1.55604 18930 ft 280 kts 120°
2026-05-05 14:00 48.90351 -1.50408 18926 ft 284 kts 109°
2026-05-05 14:00 48.90031 -1.48481 18918 ft 285 kts 98°
2026-05-05 14:00 48.90030 -1.44441 18914 ft 288 kts 81°
2026-05-05 14:00 48.90485 -1.41470 18920 ft 289 kts 77°
2026-05-05 14:01 48.90951 -1.38527 18919 ft 290 kts 77°
2026-05-05 14:01 48.91411 -1.35519 18918 ft 292 kts 77°
2026-05-05 14:01 48.91874 -1.32544 18921 ft 292 kts 77°
2026-05-05 14:01 48.92347 -1.29514 18924 ft 293 kts 77°
2026-05-05 14:02 48.92819 -1.26483 18921 ft 295 kts 77°
2026-05-05 14:02 48.93283 -1.23486 18923 ft 295 kts 77°
2026-05-05 14:02 48.93755 -1.20439 18918 ft 295 kts 77°
2026-05-05 14:02 48.94226 -1.17394 18919 ft 296 kts 77°
2026-05-05 14:03 48.94697 -1.14344 18922 ft 296 kts 77°
2026-05-05 14:03 48.95164 -1.11297 18920 ft 295 kts 77°
2026-05-05 14:03 48.95632 -1.08250 18920 ft 296 kts 77°
2026-05-05 14:03 48.96095 -1.05226 18918 ft 296 kts 77°
2026-05-05 14:04 48.96563 -1.02173 18912 ft 296 kts 77°
2026-05-05 14:04 48.97030 -0.99105 18911 ft 297 kts 77°
2026-05-05 14:04 48.97497 -0.96038 18913 ft 297 kts 77°
2026-05-05 14:04 48.97964 -0.92982 18913 ft 296 kts 77°
2026-05-05 14:05 48.98422 -0.89961 18911 ft 297 kts 77°
2026-05-05 14:05 48.98886 -0.86898 18913 ft 297 kts 77°
2026-05-05 14:05 48.99349 -0.83828 18913 ft 296 kts 77°
2026-05-05 14:05 48.99812 -0.80773 18912 ft 297 kts 77°
2026-05-05 14:06 49.00275 -0.77692 18916 ft 297 kts 77°
2026-05-05 14:06 49.00733 -0.74644 18917 ft 297 kts 77°
2026-05-05 14:06 49.01193 -0.71578 18915 ft 297 kts 77°
2026-05-05 14:06 49.01652 -0.68505 18915 ft 297 kts 77°
2026-05-05 14:07 49.02111 -0.65441 18912 ft 297 kts 77°
2026-05-05 14:07 49.02572 -0.62358 18911 ft 298 kts 77°
2026-05-05 14:07 49.03024 -0.59314 18914 ft 298 kts 77°
2026-05-05 14:07 49.03483 -0.56237 18914 ft 297 kts 77°
2026-05-05 14:08 49.03937 -0.53168 18913 ft 298 kts 77°
2026-05-05 14:08 49.04396 -0.50072 18914 ft 298 kts 77°
2026-05-05 14:08 49.04852 -0.46989 18915 ft 297 kts 77°
2026-05-05 14:08 49.05298 -0.43948 18913 ft 298 kts 77°
2026-05-05 14:09 49.05753 -0.40854 18917 ft 297 kts 78°
2026-05-05 14:09 49.06205 -0.37777 18917 ft 297 kts 78°
2026-05-05 14:09 49.06505 -0.35736 18917 ft 298 kts 77°
2026-05-05 14:09 49.06956 -0.32646 18916 ft 298 kts 78°
2026-05-05 14:10 49.07407 -0.29567 18913 ft 297 kts 78°
2026-05-05 14:10 49.07851 -0.26523 18914 ft 297 kts 78°
2026-05-05 14:10 49.08449 -0.22415 18910 ft 298 kts 78°
2026-05-05 14:10 49.08895 -0.19336 18906 ft 298 kts 78°
2026-05-05 14:11 49.09197 -0.17250 18903 ft 298 kts 78°
2026-05-05 14:11 49.09641 -0.14175 18903 ft 298 kts 78°
2026-05-05 14:11 49.10088 -0.11075 18904 ft 298 kts 78°
2026-05-05 14:11 49.10533 -0.07981 18900 ft 298 kts 78°
2026-05-05 14:12 49.10975 -0.04909 18901 ft 298 kts 78°
2026-05-05 14:12 49.11418 -0.01819 18901 ft 297 kts 78°
2026-05-05 14:12 49.11862 0.01278 18887 ft 298 kts 78°
2026-05-05 14:12 49.12301 0.04343 18886 ft 298 kts 78°
2026-05-05 14:13 49.12742 0.07439 18893 ft 298 kts 78°
2026-05-05 14:13 49.13182 0.10536 18892 ft 298 kts 78°
2026-05-05 14:13 49.13622 0.13636 18861 ft 299 kts 78°
2026-05-05 14:13 49.14067 0.16775 18552 ft 302 kts 78°
2026-05-05 14:14 49.14502 0.19862 18156 ft 300 kts 78°
2026-05-05 14:14 49.14945 0.22993 17733 ft 301 kts 78°
2026-05-05 14:14 49.15383 0.26114 17333 ft 298 kts 78°
2026-05-05 14:14 49.15821 0.29230 16938 ft 301 kts 78°
2026-05-05 14:15 49.16256 0.32328 16544 ft 301 kts 78°
2026-05-05 14:15 49.16692 0.35441 16140 ft 294 kts 78°
2026-05-05 14:15 49.17114 0.38465 15756 ft 295 kts 78°
2026-05-05 14:15 49.17540 0.41527 15372 ft 293 kts 78°
2026-05-05 14:16 49.17961 0.44548 14995 ft 288 kts 78°
2026-05-05 14:16 49.18378 0.47549 14605 ft 289 kts 78°
2026-05-05 14:16 49.18796 0.50569 14227 ft 289 kts 78°
2026-05-05 14:16 49.19203 0.53527 13844 ft 285 kts 78°
2026-05-05 14:17 49.19613 0.56498 13453 ft 283 kts 78°
2026-05-05 14:17 49.20012 0.59394 13069 ft 280 kts 78°
2026-05-05 14:17 49.20250 0.62351 12876 ft 280 kts 89°
2026-05-05 14:17 49.20173 0.65361 12874 ft 284 kts 92°
2026-05-05 14:18 49.20102 0.68239 11830 ft 263 kts 91°
2026-05-05 14:18 49.20041 0.71057 10833 ft 253 kts 91°
2026-05-05 14:18 49.19976 0.73694 10583 ft 259 kts 91°
2026-05-05 14:18 49.19907 0.76530 10348 ft 268 kts 91°
2026-05-05 14:19 49.19834 0.79394 10145 ft 270 kts 91°
2026-05-05 14:19 49.19761 0.82275 10005 ft 270 kts 90°
2026-05-05 14:19 49.19688 0.85118 9827 ft 271 kts 91°
2026-05-05 14:19 49.19613 0.88005 9486 ft 271 kts 91°
2026-05-05 14:20 49.19538 0.90872 9124 ft 267 kts 91°
2026-05-05 14:20 49.19579 0.93706 8869 ft 266 kts 81°
2026-05-05 14:20 49.20003 0.96465 8865 ft 266 kts 74°
2026-05-05 14:20 49.20453 0.99137 8865 ft 261 kts 75°
2026-05-05 14:21 49.20900 1.01843 8862 ft 261 kts 75°
2026-05-05 14:21 49.21352 1.04537 8863 ft 260 kts 75°
2026-05-05 14:21 49.21795 1.07188 8860 ft 260 kts 75°
2026-05-05 14:21 49.22248 1.09897 8879 ft 261 kts 75°
2026-05-05 14:22 49.22693 1.12582 8882 ft 259 kts 75°
2026-05-05 14:22 49.23133 1.15229 8881 ft 260 kts 75°
2026-05-05 14:22 49.23580 1.17912 8882 ft 259 kts 75°
2026-05-05 14:22 49.24021 1.20578 8881 ft 258 kts 75°
2026-05-05 14:23 49.24462 1.23243 8883 ft 258 kts 75°
2026-05-05 14:23 49.24904 1.25925 8880 ft 260 kts 75°
2026-05-05 14:23 49.25344 1.28576 8880 ft 259 kts 75°
2026-05-05 14:23 49.25783 1.31250 8882 ft 259 kts 75°
2026-05-05 14:24 49.26224 1.33929 8886 ft 259 kts 75°
2026-05-05 14:24 49.26666 1.36617 8885 ft 259 kts 75°
2026-05-05 14:24 49.27103 1.39291 8884 ft 258 kts 76°
2026-05-05 14:24 49.27542 1.41965 8882 ft 259 kts 75°
2026-05-05 14:25 49.27978 1.44637 8876 ft 259 kts 76°
2026-05-05 14:25 49.28411 1.47294 8877 ft 259 kts 76°
2026-05-05 14:25 49.28849 1.49990 8875 ft 259 kts 76°
2026-05-05 14:25 49.29287 1.52679 8874 ft 261 kts 76°
2026-05-05 14:26 49.29724 1.55368 8867 ft 258 kts 75°
2026-05-05 14:26 49.29946 1.58095 8858 ft 259 kts 88°
2026-05-05 14:26 49.29481 1.60734 8766 ft 269 kts 118°
2026-05-05 14:26 49.28080 1.62621 8566 ft 271 kts 152°
2026-05-05 14:27 49.26222 1.63089 8363 ft 275 kts 177°
2026-05-05 14:27 49.24301 1.62959 8188 ft 279 kts 181°
2026-05-05 14:27 49.22376 1.62762 8008 ft 276 kts 181°
2026-05-05 14:27 49.20443 1.62542 7828 ft 278 kts 181°
2026-05-05 14:28 49.18520 1.62327 7653 ft 276 kts 181°
2026-05-05 14:28 49.16601 1.62103 7476 ft 277 kts 182°
2026-05-05 14:28 49.14697 1.61891 7308 ft 276 kts 182°
2026-05-05 14:28 49.12784 1.61696 7135 ft 275 kts 181°
2026-05-05 14:29 49.10860 1.61485 6962 ft 276 kts 182°
2026-05-05 14:29 49.08937 1.61278 6791 ft 276 kts 182°
2026-05-05 14:29 49.07048 1.61083 6620 ft 275 kts 181°
2026-05-05 14:29 49.05137 1.60886 6449 ft 270 kts 182°
2026-05-05 14:30 49.03274 1.60713 6278 ft 271 kts 181°
2026-05-05 14:30 49.01375 1.60532 6099 ft 272 kts 181°
2026-05-05 14:30 48.99487 1.60349 5915 ft 269 kts 180°
2026-05-05 14:30 48.97721 1.60982 5698 ft 266 kts 148°
2026-05-05 14:31 48.96488 1.62991 5508 ft 260 kts 117°
2026-05-05 14:31 48.95684 1.65424 5369 ft 257 kts 112°
2026-05-05 14:31 48.94934 1.67898 5213 ft 257 kts 111°
2026-05-05 14:31 48.94192 1.70377 5055 ft 257 kts 111°
2026-05-05 14:32 48.93445 1.72859 4923 ft 257 kts 111°
2026-05-05 14:32 48.92706 1.75311 4756 ft 254 kts 111°
2026-05-05 14:32 48.91963 1.77755 4613 ft 255 kts 111°
2026-05-05 14:32 48.91233 1.80172 4451 ft 255 kts 111°
2026-05-05 14:33 48.90482 1.82663 4300 ft 255 kts 111°
2026-05-05 14:33 48.89749 1.85079 4149 ft 254 kts 111°
2026-05-05 14:33 48.89281 1.87601 3971 ft 247 kts 89°
2026-05-05 14:33 48.89448 1.90189 3820 ft 245 kts 80°
2026-05-05 14:34 48.89563 1.92780 3660 ft 245 kts 87°
2026-05-05 14:34 48.89476 1.95372 3509 ft 247 kts 92°
2026-05-05 14:34 48.89359 1.98005 3360 ft 251 kts 90°
2026-05-05 14:34 48.89293 2.00591 3209 ft 244 kts 89°
2026-05-05 14:35 48.89233 2.03177 3061 ft 245 kts 89°
2026-05-05 14:35 48.89165 2.05761 3001 ft 241 kts 89°
2026-05-05 14:35 48.89089 2.08326 2997 ft 243 kts 89°
2026-05-05 14:35 48.89019 2.10881 2999 ft 243 kts 89°
2026-05-05 14:36 48.88981 2.13430 2997 ft 242 kts 83°
2026-05-05 14:36 48.89335 2.15913 2996 ft 238 kts 68°
2026-05-05 14:36 48.89974 2.18237 3000 ft 238 kts 64°
2026-05-05 14:36 48.90607 2.20557 3007 ft 240 kts 66°
2026-05-05 14:37 48.91228 2.22887 3003 ft 235 kts 66°
2026-05-05 14:37 48.91821 2.25091 2876 ft 212 kts 66°
2026-05-05 14:37 48.92337 2.27033 2623 ft 187 kts 65°
2026-05-05 14:37 48.92811 2.28782 2367 ft 172 kts 64°
2026-05-05 14:38 48.93256 2.30433 2092 ft 162 kts 63°
2026-05-05 14:38 48.93673 2.31957 1795 ft 157 kts 63°
2026-05-05 14:38 48.94083 2.33483 1498 ft 156 kts 64°
2026-05-05 14:38 48.94496 2.35010 1219 ft 155 kts 62°
2026-05-05 14:39 48.94904 2.36503 971 ft 148 kts 64°
2026-05-05 14:39 48.95266 2.37865 823 ft 126 kts 64°
2026-05-05 14:39 48.95559 2.38967 659 ft 101 kts 60°
2026-05-05 14:39 48.95819 2.39934 521 ft 100 kts 63°
2026-05-05 14:40 48.96061 2.40871 422 ft 93 kts 62°
2026-05-05 14:40 48.96328 2.41807 282 ft 98 kts 63°
2026-05-05 14:40 48.96582 2.42760 181 ft 94 kts 62°
2026-05-05 14:40 48.96788 2.43530 174 ft 65 kts 68°
2026-05-05 14:41 48.96906 2.43970 194 ft 20 kts 68°
2026-05-05 14:41 48.96942 2.44108 194 ft 10 kts 74°
2026-05-05 14:41 48.96949 2.44195 190 ft 8 kts 94°
2026-05-05 14:41 48.96934 2.44282 195 ft 10 kts 113°
2026-05-05 14:42 48.96877 2.44380 190 ft 14 kts 149°
2026-05-05 14:42 48.96777 2.44424 187 ft 16 kts 164°
2026-05-05 14:42 48.96658 2.44483 177 ft 19 kts 161°
2026-05-05 14:42 48.96544 2.44532 175 ft 15 kts 169°
2026-05-05 14:43 48.96447 2.44546 172 ft 14 kts 176°
2026-05-05 14:43 48.96353 2.44519 167 ft 14 kts 204°
2026-05-05 14:43 48.96271 2.44461 166 ft 12 kts 205°
2026-05-05 14:43 48.96191 2.44404 162 ft 14 kts 205°
2026-05-05 14:44 48.96094 2.44336 157 ft 16 kts 204°
2026-05-05 14:44 48.95998 2.44270 156 ft 14 kts 205°
2026-05-05 14:44 48.95909 2.44206 152 ft 15 kts 204°
2026-05-05 14:44 48.95815 2.44142 150 ft 14 kts 205°
2026-05-05 14:45 48.95724 2.44077 150 ft 15 kts 204°
2026-05-05 14:45 48.95631 2.44012 150 ft 15 kts 205°
2026-05-05 14:45 48.95541 2.43948 149 ft 14 kts 206°
2026-05-05 14:45 48.95456 2.43881 149 ft 14 kts 208°
2026-05-05 14:46 48.95370 2.43810 147 ft 14 kts 208°
2026-05-05 14:46 48.95286 2.43743 147 ft 13 kts 208°
2026-05-05 14:46 48.95213 2.43683 146 ft 12 kts 207°
2026-05-05 14:46 48.95151 2.43686 146 ft 10 kts 131°
2026-05-05 14:47 48.95152 2.43758 148 ft 5 kts 94°
2026-05-05 14:47 48.95135 2.43804 149 ft 6 kts 185°
2026-05-05 14:47 48.95128 2.43801 149 ft 0 kts 207°